tititudorancea.com
Station Historical Data
Daily Summary for January 30, 2018 Units:  Metric    English   Both
« Previous Day
Next Day »
Daily Weekly Monthly Yearly Custom
  High: Low: Average:
Temperature: -17.8 °C 12.9 °C 15.2 °C
Dew Point: -17.8 °C 4.4 °C 9 °C
Humidity: Humidity % 42 % 69 %
Wind Speed: 0 km/h 7.2 km/h 17.7 km/h
Wind Gust: 0 km/h - -
Wind:- - SSW
Pressure: 0 hPa 1008 hPa -
Precipitation: 1.02 mm    
Historical Graphs
 
 
Ararat weather Find more about Weather in Ararat, AU


 



 


Tabular Data for January 30, 2018
Time Temperature Dew Point Pressure Wind Wind Speed Wind Gust Humidity Rainfall Rate (Hourly)
-17.8 °C -17.8 °C 0 hPa Calm     Humidity % 0 mm
00:06 15.4 °C 14.5 °C 1008.4 hPa North 16.7 km/h 16.7 km/h 94 % 0 mm
00:11 15.4 °C 14.5 °C 1008.4 hPa North 14.2 km/h 16.7 km/h 94 % 0.25 mm
00:16 15.4 °C 14.4 °C 1008.4 hPa North 9.5 km/h 16.7 km/h 94 % 0.25 mm
00:21 15.3 °C 14.6 °C 1008.4 hPa North 7.2 km/h 16.7 km/h 95 % 0.25 mm
00:26 15.3 °C 14.5 °C 1008.4 hPa SSE 14.2 km/h 20.4 km/h 95 % 0.51 mm
00:31 15.2 °C 14.2 °C 1008.7 hPa North 11.9 km/h 13 km/h 94 % 0.51 mm
00:36 15 °C 14.1 °C 1008.7 hPa North 10.6 km/h 16.7 km/h 94 % 0.51 mm
00:41 14.9 °C 13.9 °C 1008.4 hPa SSE 9.8 km/h 18.5 km/h 94 % 0.51 mm
00:46 14.9 °C 14.1 °C 1008.4 hPa South 11.7 km/h 14.5 km/h 95 % 0.51 mm
00:51 14.8 °C 14.1 °C 1008.4 hPa SSW 12.9 km/h 18.5 km/h 95 % 0.76 mm
00:56 14.8 °C 13.8 °C 1008.7 hPa North 10.3 km/h 16.7 km/h 94 % 0.76 mm
01:01 14.7 °C 13.8 °C 1008.4 hPa South 14.3 km/h 20.4 km/h 94 % 0.76 mm
01:06 14.7 °C 13.9 °C 1008.4 hPa SSW 17.4 km/h 29.6 km/h 95 % 0.76 mm
01:11 14.6 °C 13.8 °C 1008.4 hPa SSW 15 km/h 24.1 km/h 95 % 0.51 mm
01:16 14.6 °C 13.8 °C 1008.7 hPa South 15 km/h 25.9 km/h 95 % 0.51 mm
01:21 14.6 °C 13.8 °C 1008.7 hPa North 9.5 km/h 22.2 km/h 95 % 0.76 mm
01:26 14.6 °C 13.8 °C 1008.7 hPa SSE 18.3 km/h 25.9 km/h 95 % 0.51 mm
01:31 14.5 °C 13.6 °C 1008.7 hPa South 18.3 km/h 35.2 km/h 94 % 0.51 mm
01:36 14.5 °C 13.7 °C 1008.7 hPa South 19.3 km/h 24.1 km/h 95 % 0.51 mm
01:41 14.4 °C 13.5 °C 1008.7 hPa South 19.2 km/h 24.1 km/h 94 % 0.51 mm
01:46 14.3 °C 13.4 °C 1008.7 hPa South 20.9 km/h 29.6 km/h 94 % 0.51 mm
01:51 14.3 °C 13.4 °C 1008.4 hPa South 16.9 km/h 19.3 km/h 94 % 0.25 mm
01:56 14.4 °C 13.4 °C 1008.7 hPa North 18 km/h 25.9 km/h 94 % 0.25 mm
02:01 14.4 °C 13.4 °C 1008.4 hPa North 9.3 km/h 22.2 km/h 94 % 0.25 mm
02:06 14.3 °C 13.4 °C 1008.4 hPa South 12.6 km/h 22.2 km/h 94 % 0.25 mm
02:11 14.3 °C 13.3 °C 1008.4 hPa South 12.6 km/h 18.5 km/h 94 % 0.25 mm
02:16 14.2 °C 13.2 °C 1008.4 hPa SSW 15.4 km/h 18.5 km/h 94 % 0.25 mm
02:21 14.2 °C 13.2 °C 1008 hPa SSE 13.4 km/h 18.5 km/h 94 % 0 mm
02:26 14.1 °C 13.2 °C 1008 hPa South 12.4 km/h 18.5 km/h 94 % 0 mm
02:31 14.1 °C 13.2 °C 1008 hPa North 11.4 km/h 22.2 km/h 94 % 0 mm
02:36 14.1 °C 13.2 °C 1008 hPa North 15 km/h 22.5 km/h 94 % 0 mm
02:41 14.1 °C 13.2 °C 1008 hPa South 20.9 km/h 27.8 km/h 94 % 0 mm
02:46 14.2 °C 13.2 °C 1008 hPa South 10.1 km/h 22.2 km/h 94 % 0 mm
02:51 14 °C 12.9 °C 1008 hPa North 15.3 km/h 25.9 km/h 93 % 0 mm
02:56 13.9 °C 12.8 °C 1008 hPa North 22.2 km/h 31.5 km/h 93 % 0 mm
03:01 13.8 °C 12.6 °C 1008 hPa South 15.4 km/h 22.2 km/h 92 % 0 mm
03:06 13.9 °C 12.6 °C 1008 hPa North 15.8 km/h 22.5 km/h 92 % 0 mm
03:11 13.9 °C 12.8 °C 1008 hPa North 14.3 km/h 24.1 km/h 93 % 0 mm
03:16 13.9 °C 12.8 °C 1008 hPa North 13.5 km/h 18.5 km/h 93 % 0 mm
03:21 13.9 °C 12.8 °C 1008 hPa SSW 17.4 km/h 31.5 km/h 93 % 0 mm
03:26 13.7 °C 12.4 °C 1008 hPa SSW 20.8 km/h 29.6 km/h 92 % 0 mm
03:31 13.5 °C 12.2 °C 1008 hPa South 11.1 km/h 14.8 km/h 92 % 0 mm
03:36 13.4 °C 12.1 °C 1008 hPa North 17.1 km/h 33.3 km/h 92 % 0 mm
03:41 13.4 °C 12.1 °C 1008 hPa South 19.8 km/h 24.1 km/h 92 % 0 mm
03:46 13.4 °C 12.1 °C 1008 hPa North 15.6 km/h 25.9 km/h 92 % 0 mm
03:51 13.4 °C 12.1 °C 1008 hPa South 15.3 km/h 29.6 km/h 92 % 0 mm
03:56 13.4 °C 12.1 °C 1008 hPa SSE 22.2 km/h 33.3 km/h 92 % 0 mm
04:01 13.4 °C 12.1 °C 1008 hPa North 11.6 km/h 27.8 km/h 92 % 0 mm
04:06 13.4 °C 12.1 °C 1008 hPa South 10.9 km/h 24.1 km/h 92 % 0 mm
04:11 13.4 °C 12.1 °C 1008.4 hPa South 14.6 km/h 22.2 km/h 92 % 0 mm
04:16 13.3 °C 12.1 °C 1008.4 hPa North 13.8 km/h 20.4 km/h 92 % 0 mm
04:21 13.3 °C 12 °C 1008.4 hPa South 21.4 km/h 27.8 km/h 92 % 0 mm
04:26 13.3 °C 12 °C 1008.4 hPa North 7.6 km/h 18.5 km/h 92 % 0 mm
04:31 13.3 °C 12 °C 1008.4 hPa North 15.8 km/h 24.1 km/h 92 % 0 mm
04:36 13.3 °C 11.8 °C 1008.4 hPa South 12.1 km/h 22.2 km/h 91 % 0 mm
04:41 13.3 °C 11.8 °C 1008.4 hPa SSE 11.4 km/h 18.5 km/h 91 % 0 mm
04:46 13.2 °C 11.8 °C 1008.4 hPa South 10 km/h 18.5 km/h 91 % 0 mm
04:51 13.2 °C 11.7 °C 1008.4 hPa North 15.3 km/h 31.5 km/h 91 % 0 mm
04:56 13.2 °C 11.6 °C 1008.7 hPa North 12.6 km/h 29.6 km/h 90 % 0 mm
05:01 13.2 °C 11.4 °C 1008.7 hPa South 15.9 km/h 20.4 km/h 89 % 0 mm
05:06 13.2 °C 11.2 °C 1009 hPa South 13 km/h 22.2 km/h 88 % 0 mm
05:11 13.2 °C 11.2 °C 1009 hPa SSE 14.3 km/h 18.5 km/h 88 % 0 mm
05:16 13.1 °C 11 °C 1008.7 hPa North 20 km/h 22.2 km/h 87 % 0 mm
05:21 13.1 °C 10.8 °C 1008.7 hPa South 15.4 km/h 15.4 km/h 86 % 0 mm
05:26 13.1 °C 10.8 °C 1009 hPa North 11.9 km/h 22.5 km/h 86 % 0 mm
05:31 13.1 °C 10.8 °C 1009 hPa South 14.3 km/h 20.9 km/h 86 % 0 mm
05:36 13.1 °C 10.6 °C 1009 hPa SSE 12.2 km/h 18.5 km/h 85 % 0 mm
05:41 13.1 °C 10.4 °C 1009 hPa South 14.8 km/h 31.5 km/h 84 % 0 mm
05:46 13.1 °C 10.6 °C 1009 hPa South 11.4 km/h 18.5 km/h 85 % 0 mm
05:51 13.1 °C 10.6 °C 1009 hPa South 11.6 km/h 16.7 km/h 85 % 0 mm
05:56 13.1 °C 10.6 °C 1009.4 hPa South 8.4 km/h 22.2 km/h 85 % 0 mm
06:01 13 °C 10.6 °C 1009.4 hPa North 14.5 km/h 22.2 km/h 85 % 0 mm
06:06 13 °C 10.6 °C 1009.4 hPa South 14 km/h 27.8 km/h 85 % 0 mm
06:11 13 °C 10.6 °C 1009.4 hPa SSE 10.1 km/h 20.9 km/h 85 % 0 mm
06:17 13 °C 10.3 °C 1009.4 hPa SSE 11.1 km/h 14.8 km/h 84 % 0 mm
06:22 13 °C 10.3 °C 1009.4 hPa North 9.5 km/h 24.1 km/h 84 % 0 mm
06:26 13 °C 10.3 °C 1009.4 hPa South 15 km/h 20.4 km/h 84 % 0 mm
06:31 13 °C 10.3 °C 1009.4 hPa South 10.8 km/h 29.6 km/h 84 % 0 mm
06:37 13 °C 10.2 °C 1009.7 hPa North 11.3 km/h 14.8 km/h 83 % 0 mm
06:41 13 °C 10.3 °C 1009.4 hPa South 9.7 km/h 17.7 km/h 84 % 0 mm
06:47 13 °C 10.2 °C 1009.7 hPa North 12.7 km/h 14.8 km/h 83 % 0 mm
06:52 13 °C 10.2 °C 1009.7 hPa South 17.1 km/h 24.1 km/h 83 % 0 mm
06:57 13 °C 10.2 °C 1009.7 hPa South 14.8 km/h 25.9 km/h 83 % 0 mm
07:02 13 °C 10.3 °C 1009.7 hPa South 12.1 km/h 20.9 km/h 84 % 0 mm
07:07 13 °C 10.3 °C 1009.7 hPa South 12.2 km/h 22.2 km/h 84 % 0 mm
07:12 13 °C 10.3 °C 1009.7 hPa SSE 12.9 km/h 18.5 km/h 84 % 0 mm
07:17 13 °C 10.3 °C 1009.7 hPa South 15.3 km/h 22.2 km/h 84 % 0 mm
07:22 13.1 °C 10.4 °C 1010 hPa South 14.2 km/h 30.6 km/h 84 % 0 mm
07:27 13.1 °C 10.2 °C 1010 hPa South 13.5 km/h 18.5 km/h 83 % 0 mm
07:32 13.1 °C 10.2 °C 1010 hPa South 16.6 km/h 24.1 km/h 83 % 0 mm
07:37 13.1 °C 10.2 °C 1010 hPa North 9.5 km/h 13 km/h 83 % 0 mm
07:42 13 °C 10.3 °C 1010 hPa South 15.8 km/h 20.4 km/h 84 % 0 mm
07:47 13 °C 10.3 °C 1010 hPa SSE 13.4 km/h 22.2 km/h 84 % 0 mm
07:52 12.9 °C 10.3 °C 1010.4 hPa SSE 12.4 km/h 16.7 km/h 84 % 0 mm
07:57 12.9 °C 10.3 °C 1010.4 hPa South 8.7 km/h 12.9 km/h 84 % 0 mm
08:02 13.1 °C 10.4 °C 1010.4 hPa South 10.9 km/h 14.8 km/h 84 % 0 mm
08:07 13.4 °C 10.7 °C 1010.4 hPa South 15.1 km/h 24.1 km/h 84 % 0 mm
08:12 13.6 °C 10.6 °C 1010.4 hPa SSE 17.7 km/h 27.4 km/h 82 % 0 mm
08:17 13.7 °C 10.7 °C 1010.7 hPa South 12.4 km/h 25.7 km/h 82 % 0 mm
08:22 13.8 °C 10.8 °C 1010.4 hPa South 12.9 km/h 18.5 km/h 82 % 0 mm
08:27 13.8 °C 10.6 °C 1010.7 hPa South 11.9 km/h 22.2 km/h 81 % 0 mm
08:32 13.9 °C 10.6 °C 1010.7 hPa South 16.3 km/h 25.9 km/h 80 % 0 mm
08:37 14.1 °C 10.4 °C 1011.1 hPa South 19.3 km/h 27.8 km/h 79 % 0 mm
08:42 14.2 °C 10.2 °C 1011.1 hPa SSE 20 km/h 31.5 km/h 77 % 0 mm
08:47 14.4 °C 10.4 °C 1011.1 hPa North 11.3 km/h 22.2 km/h 77 % 0 mm
08:52 14.6 °C 10.4 °C 1010.7 hPa SSW 15.8 km/h 24.1 km/h 76 % 0 mm
08:57 14.7 °C 10.5 °C 1010.7 hPa North 18.5 km/h 27.8 km/h 76 % 0 mm
09:02 14.7 °C 10.5 °C 1011.1 hPa SSE 19.6 km/h 31.5 km/h 76 % 0 mm
09:07 14.8 °C 10.2 °C 1011.1 hPa SSE 21.7 km/h 33.3 km/h 74 % 0 mm
09:12 14.8 °C 10.2 °C 1011.1 hPa South 21.1 km/h 35.2 km/h 74 % 0 mm
09:17 15.2 °C 10.3 °C 1010.7 hPa South 19.3 km/h 27.8 km/h 73 % 0 mm
09:22 15.4 °C 10.4 °C 1010.7 hPa South 24.8 km/h 37 km/h 72 % 0 mm
09:27 15.5 °C 9.8 °C 1011.1 hPa South 17.9 km/h 31.5 km/h 69 % 0 mm
09:32 15.7 °C 10.3 °C 1010.7 hPa SE 20.8 km/h 33.8 km/h 70 % 0 mm
09:37 15.8 °C 9.9 °C 1010.7 hPa South 21.9 km/h 27.8 km/h 68 % 0 mm
09:42 15.7 °C 10 °C 1011.1 hPa SSW 19.8 km/h 44.4 km/h 69 % 0 mm
09:47 15.6 °C 9.9 °C 1011.1 hPa SE 18 km/h 33.3 km/h 69 % 0 mm
09:52 16 °C 10.3 °C 1011.1 hPa South 16.4 km/h 22.2 km/h 69 % 0 mm
09:57 15.7 °C 9.8 °C 1010.7 hPa South 22.2 km/h 31.5 km/h 68 % 0 mm
10:02 15.5 °C 9.8 °C 1010.7 hPa SSW 18.3 km/h 29 km/h 69 % 0 mm
10:07 15.4 °C 9.8 °C 1010.7 hPa SSE 19.2 km/h 27.8 km/h 69 % 0 mm
10:12 15.4 °C 9.9 °C 1010.7 hPa SSE 21.4 km/h 29.6 km/h 70 % 0 mm
10:17 15.4 °C 10.2 °C 1010.7 hPa SSE 17.1 km/h 27.8 km/h 71 % 0 mm
10:22 15.7 °C 10.3 °C 1010.7 hPa South 23.5 km/h 38.9 km/h 70 % 0 mm
10:27 15.7 °C 10.5 °C 1011.1 hPa South 16.7 km/h 31.5 km/h 71 % 0 mm
10:32 16 °C 10.6 °C 1011.1 hPa South 16.9 km/h 29.6 km/h 70 % 0 mm
10:37 15.8 °C 10.3 °C 1011.1 hPa South 20.8 km/h 37 km/h 70 % 0 mm
10:42 15.3 °C 10.5 °C 1011.1 hPa South 20 km/h 31.5 km/h 73 % 0 mm
10:47 14.8 °C 10.8 °C 1011.4 hPa South 21.6 km/h 42.6 km/h 77 % 0 mm
10:52 14.2 °C 11 °C 1011.4 hPa SSE 24 km/h 37 km/h 81 % 0 mm
10:57 14.6 °C 11.6 °C 1011.4 hPa South 18.2 km/h 29.6 km/h 82 % 0 mm
11:02 15.2 °C 10.8 °C 1011.4 hPa South 23.8 km/h 35.4 km/h 75 % 0 mm
11:07 15.2 °C 10.4 °C 1011.4 hPa SSW 22.4 km/h 37 km/h 73 % 0 mm
11:12 15.6 °C 10.4 °C 1011.4 hPa South 19.5 km/h 31.5 km/h 71 % 0 mm
11:17 16 °C 10.6 °C 1011.4 hPa South 19.5 km/h 31.5 km/h 70 % 0 mm
11:22 15.8 °C 10.3 °C 1011.7 hPa SSW 19.5 km/h 31.5 km/h 70 % 0 mm
11:27 15.9 °C 10.4 °C 1011.4 hPa South 19.5 km/h 29.6 km/h 70 % 0 mm
11:32 16.4 °C 11.2 °C 1011.4 hPa North 15.9 km/h 27.8 km/h 71 % 0 mm
11:37 16.8 °C 11.1 °C 1011.1 hPa South 20.4 km/h 31.5 km/h 69 % 0 mm
11:42 16.5 °C 10.8 °C 1011.1 hPa South 19 km/h 29.6 km/h 69 % 0 mm
11:47 15.8 °C 9.9 °C 1011.4 hPa SSE 19 km/h 42.6 km/h 68 % 0 mm
11:52 15.7 °C 9.6 °C 1011.1 hPa SSW 24.3 km/h 42.6 km/h 67 % 0 mm
11:57 16.1 °C 9.8 °C 1011.4 hPa North 17.7 km/h 42.6 km/h 66 % 0 mm
12:02 16.7 °C 9.8 °C 1011.1 hPa SSW 23.5 km/h 38.9 km/h 64 % 0 mm
12:07 16.8 °C 9.4 °C 1011.4 hPa South 24.8 km/h 38.9 km/h 62 % 0 mm
12:12 16.6 °C 9.1 °C 1011.4 hPa South 19.3 km/h 35.2 km/h 61 % 0 mm
12:17 16.6 °C 8.5 °C 1011.1 hPa SSW 20.9 km/h 31.5 km/h 59 % 0 mm
12:22 17.2 °C 8.4 °C 1011.1 hPa SE 29 km/h 50 km/h 56 % 0 mm
12:27 17.4 °C 8.3 °C 1011.1 hPa SSW 26.4 km/h 33.3 km/h 55 % 0 mm
12:32 17.8 °C 8.1 °C 1011.1 hPa South 26.2 km/h 42.6 km/h 53 % 0 mm
12:37 18 °C 8 °C 1011.4 hPa SSE 19.6 km/h 31.5 km/h 52 % 0 mm
12:42 18 °C 7.4 °C 1011.4 hPa SSW 24.9 km/h 37 km/h 50 % 0 mm
12:47 17.7 °C 6.6 °C 1011.1 hPa South 28.8 km/h 42.6 km/h 48 % 0 mm
12:52 17.7 °C 6.5 °C 1011.4 hPa North 25.7 km/h 38.9 km/h 48 % 0 mm
12:57 17.5 °C 5.7 °C 1011.7 hPa SSW 21.4 km/h 35.2 km/h 46 % 0 mm
13:02 17.9 °C 5.5 °C 1011.4 hPa SE 16.3 km/h 42.6 km/h 44 % 0 mm
13:07 18 °C 5.2 °C 1011.4 hPa South 20.9 km/h 31.5 km/h 43 % 0 mm
13:12 17.7 °C 5.3 °C 1011.4 hPa SSW 33.2 km/h 42.6 km/h 44 % 0 mm
13:17 17.9 °C 5.4 °C 1011.4 hPa SSW 22.7 km/h 40.7 km/h 44 % 0 mm
13:22 18.1 °C 5.7 °C 1011.4 hPa South 26.9 km/h 38.9 km/h 44 % 0 mm
13:27 18.2 °C 6.4 °C 1011.4 hPa South 20.1 km/h 35.2 km/h 46 % 0 mm
13:32 18.2 °C 7 °C 1011.4 hPa South 18.8 km/h 38.9 km/h 48 % 0 mm
13:37 18.2 °C 6.7 °C 1011.4 hPa South 24.8 km/h 42.6 km/h 47 % 0 mm
13:42 17.9 °C 7 °C 1011.4 hPa South 27 km/h 37 km/h 49 % 0 mm
13:47 17.7 °C 7.2 °C 1011.1 hPa SE 17.4 km/h 31.5 km/h 50 % 0 mm
13:52 17.8 °C 7.2 °C 1011.4 hPa SSE 26.6 km/h 37 km/h 50 % 0 mm
13:57 17.4 °C 7.8 °C 1011.4 hPa South 23.2 km/h 38.9 km/h 53 % 0 mm
14:02 17.3 °C 7.9 °C 1011.4 hPa SSW 23.3 km/h 35.2 km/h 54 % 0 mm
14:07 17.3 °C 7.4 °C 1011.4 hPa North 24.6 km/h 40.7 km/h 52 % 0 mm
14:12 17.3 °C 7.3 °C 1011.7 hPa North 22.2 km/h 29.6 km/h 52 % 0 mm
14:17 17.2 °C 6.9 °C 1011.4 hPa SSW 23.2 km/h 33.3 km/h 51 % 0 mm
14:22 17.6 °C 7.3 °C 1011.4 hPa SSW 27 km/h 38.9 km/h 51 % 0 mm
14:27 17.7 °C 7.2 °C 1011.4 hPa SSE 21.1 km/h 29.6 km/h 50 % 0 mm
14:32 18 °C 6.8 °C 1011.1 hPa South 20.9 km/h 35.4 km/h 48 % 0 mm
14:37 17.7 °C 6.6 °C 1011.4 hPa SSW 27.4 km/h 38.9 km/h 48 % 0 mm
14:42 18 °C 6.5 °C 1011.4 hPa SSW 27.2 km/h 40.7 km/h 47 % 0 mm
14:47 18.1 °C 6.3 °C 1011.4 hPa SE 17.7 km/h 35.2 km/h 46 % 0 mm
14:52 18.2 °C 6.4 °C 1011.4 hPa SSW 22.4 km/h 33.8 km/h 46 % 0 mm
14:57 18.3 °C 6.4 °C 1011.4 hPa South 16.6 km/h 29.6 km/h 46 % 0 mm
15:02 18.2 °C 6.1 °C 1011.1 hPa SSE 17.2 km/h 31.5 km/h 45 % 0 mm
15:07 18.1 °C 6.3 °C 1011.1 hPa South 23.8 km/h 31.5 km/h 46 % 0 mm
15:12 18.3 °C 6.5 °C 1011.1 hPa SSE 18.7 km/h 20.9 km/h 46 % 0 mm
15:17 18.7 °C 5.6 °C 1011.1 hPa SSW 34.8 km/h 43.5 km/h 42 % 0 mm
15:22 18.5 °C 6 °C 1011.1 hPa South 23.2 km/h 31.5 km/h 44 % 0 mm
15:27 18.4 °C 6.3 °C 1011.1 hPa SSW 16.7 km/h 31.5 km/h 45 % 0 mm
15:32 18.2 °C 6.1 °C 1011.1 hPa SSW 31.4 km/h 38.9 km/h 45 % 0 mm
15:37 17.9 °C 6.1 °C 1011.1 hPa North 21.9 km/h 27.8 km/h 46 % 0 mm
15:42 18 °C 5.9 °C 1011.1 hPa SSW 30.7 km/h 38.6 km/h 45 % 0 mm
15:47 18.3 °C 6.4 °C 1011.1 hPa SSE 15.1 km/h 25.9 km/h 46 % 0 mm
15:52 18.5 °C 6.9 °C 1011.1 hPa SSW 32.5 km/h 40.7 km/h 47 % 0 mm
15:57 18.2 °C 6.7 °C 1011.1 hPa SSW 18.8 km/h 27.4 km/h 47 % 0 mm
16:02 18.1 °C 6 °C 1010.7 hPa SSE 23.8 km/h 35.2 km/h 45 % 0 mm
16:07 18.3 °C 6.4 °C 1010.7 hPa South 20.3 km/h 27.8 km/h 46 % 0 mm
16:12 18.2 °C 6.3 °C 1010.7 hPa South 16.9 km/h 25.9 km/h 46 % 0 mm
16:17 18 °C 6.2 °C 1010.7 hPa SSE 21.2 km/h 40.7 km/h 46 % 0 mm
16:22 18.2 °C 6.4 °C 1010.7 hPa SSE 19.5 km/h 29.6 km/h 46 % 0 mm
16:27 18.1 °C 6.9 °C 1010.7 hPa South 27.2 km/h 42.6 km/h 48 % 0 mm
16:32 17.9 °C 7.1 °C 1010.7 hPa South 17.5 km/h 24.1 km/h 49 % 0 mm
16:37 17.4 °C 6.9 °C 1010.7 hPa South 23.5 km/h 42.6 km/h 50 % 0 mm
16:42 17.4 °C 7.2 °C 1011.1 hPa SSE 22 km/h 33.8 km/h 51 % 0 mm
16:47 17.4 °C 6.9 °C 1010.7 hPa SSW 22.5 km/h 38.9 km/h 50 % 0 mm
16:52 17.6 °C 6.7 °C 1010.7 hPa SE 20.6 km/h 38.9 km/h 49 % 0 mm
16:57 17.4 °C 6.3 °C 1010.7 hPa South 15.4 km/h 31.5 km/h 48 % 0 mm
17:02 17.6 °C 6.1 °C 1010.7 hPa South 25.7 km/h 37 km/h 47 % 0 mm
17:07 18.1 °C 6.6 °C 1011.1 hPa South 28.2 km/h 38.9 km/h 47 % 0 mm
17:12 17.8 °C 6.1 °C 1010.7 hPa SSE 23 km/h 40.7 km/h 46 % 0 mm
17:17 17.4 °C 6.6 °C 1011.1 hPa SSW 23.7 km/h 38.9 km/h 49 % 0 mm
17:22 17.5 °C 6.7 °C 1010.7 hPa South 23.3 km/h 35.2 km/h 49 % 0 mm
17:27 17.5 °C 6.1 °C 1011.1 hPa North 23.2 km/h 35.2 km/h 47 % 0 mm
17:32 17.3 °C 6.2 °C 1010.7 hPa SSE 18.2 km/h 33.3 km/h 48 % 0 mm
17:37 17.7 °C 5.6 °C 1011.1 hPa SSW 32.2 km/h 42.6 km/h 45 % 0 mm
17:42 17.7 °C 5.6 °C 1010.7 hPa SSW 20.1 km/h 35.2 km/h 45 % 0 mm
17:47 17.6 °C 5.2 °C 1010.7 hPa SSW 15.8 km/h 31.5 km/h 44 % 0 mm
17:52 17.2 °C 4.8 °C 1011.1 hPa South 23.2 km/h 42.6 km/h 44 % 0 mm
17:57 17.2 °C 4.4 °C 1011.1 hPa South 20.8 km/h 31.5 km/h 43 % 0 mm
18:02 17.4 °C 4.7 °C 1011.1 hPa North 19.6 km/h 25.9 km/h 43 % 0 mm
18:07 17.4 °C 5.1 °C 1011.1 hPa SSW 26.2 km/h 32.2 km/h 44 % 0 mm
18:12 17.3 °C 4.9 °C 1011.1 hPa North 19.3 km/h 29.6 km/h 44 % 0 mm
18:17 17.1 °C 5.1 °C 1011.1 hPa South 22.9 km/h 24.1 km/h 45 % 0 mm
18:22 17.2 °C 5.8 °C 1011.1 hPa South 18.5 km/h 31.5 km/h 47 % 0 mm
18:27 17 °C 6.5 °C 1011.4 hPa SSW 25.1 km/h 48.1 km/h 50 % 0 mm
18:32 16.8 °C 6.1 °C 1011.4 hPa South 18 km/h 25.9 km/h 49 % 0 mm
18:37 16.8 °C 6.3 °C 1011.4 hPa South 22.7 km/h 27.8 km/h 50 % 0 mm
18:42 16.4 °C 5.7 °C 1011.4 hPa South 16.3 km/h 24.1 km/h 49 % 0 mm
18:47 16.4 °C 6.6 °C 1011.7 hPa SSW 15.1 km/h 25.9 km/h 52 % 0 mm
18:52 16.6 °C 6.7 °C 1011.7 hPa SSW 21.7 km/h 31.5 km/h 52 % 0 mm
18:57 16.3 °C 6.4 °C 1011.7 hPa SSW 19.2 km/h 32.2 km/h 52 % 0 mm
19:02 16.2 °C 6.3 °C 1011.7 hPa SSW 15.9 km/h 25.7 km/h 52 % 0 mm
19:07 16.1 °C 5.9 °C 1011.7 hPa South 20.8 km/h 31.5 km/h 51 % 0 mm
19:12 16 °C 5.8 °C 1012.1 hPa South 16.9 km/h 27.8 km/h 51 % 0 mm
19:17 15.9 °C 6.3 °C 1011.7 hPa North 15.8 km/h 24.1 km/h 53 % 0 mm
19:22 15.9 °C 6.6 °C 1012.1 hPa SSW 19.5 km/h 29 km/h 54 % 0 mm
19:27 15.8 °C 6.5 °C 1012.1 hPa SSE 12.2 km/h 24.1 km/h 54 % 0 mm
19:32 15.7 °C 6.1 °C 1012.1 hPa SSW 19.2 km/h 25.9 km/h 53 % 0 mm
19:37 15.6 °C 5.7 °C 1012.1 hPa SSE 22.5 km/h 33.3 km/h 52 % 0 mm
19:42 15.5 °C 5.7 °C 1012.4 hPa South 19.5 km/h 33.8 km/h 52 % 0 mm
19:47 15.4 °C 5.6 °C 1012.4 hPa North 17.4 km/h 37 km/h 52 % 0 mm
19:52 15.4 °C 5.3 °C 1012.4 hPa South 16.1 km/h 25.9 km/h 51 % 0 mm
19:57 15.3 °C 5.2 °C 1012.4 hPa South 22 km/h 37 km/h 51 % 0 mm
20:02 15.1 °C 5.1 °C 1012.4 hPa South 11.7 km/h 38.9 km/h 51 % 0 mm
20:07 15 °C 5.2 °C 1012.8 hPa South 9.2 km/h 24.1 km/h 52 % 0 mm
20:12 14.8 °C 5.3 °C 1012.8 hPa North 17.9 km/h 22.5 km/h 53 % 0 mm
20:17 14.7 °C 5.8 °C 1012.8 hPa South 14.8 km/h 22.2 km/h 55 % 0 mm
20:22 14.6 °C 6.2 °C 1012.8 hPa SSW 19 km/h 25.9 km/h 57 % 0 mm
20:27 14.4 °C 6.3 °C 1012.8 hPa South 15.1 km/h 31.5 km/h 58 % 0 mm
20:30 14.4 °C 6.2 °C 1012.8 hPa South 13.7 km/h 18.5 km/h 58 % 0 mm
20:35 14.3 °C 6.2 °C 1013.1 hPa South 16.9 km/h 20.4 km/h 58 % 0 mm
20:40 14.2 °C 6.1 °C 1013.1 hPa South 16.4 km/h 25.9 km/h 58 % 0 mm
20:45 14.2 °C 6 °C 1013.1 hPa South 18.5 km/h 25.9 km/h 58 % 0 mm
20:50 14.1 °C 5.9 °C 1013.1 hPa SSW 19.6 km/h 25.9 km/h 58 % 0 mm
20:55 14 °C 5.8 °C 1013.1 hPa South 13.2 km/h 24.1 km/h 58 % 0 mm
20:56 14 °C 5.8 °C 1013.1 hPa South 16.7 km/h 18.5 km/h 58 % 0 mm
21:01 13.9 °C 5.5 °C 1013.1 hPa South 11.7 km/h 20.4 km/h 57 % 0 mm
21:06 13.9 °C 5.5 °C 1013.1 hPa North 16.7 km/h 22.5 km/h 57 % 0 mm
21:11 13.8 °C 5.4 °C 1013.4 hPa SSE 13.5 km/h 18.5 km/h 57 % 0 mm
21:16 13.7 °C 5.3 °C 1013.4 hPa SSE 10.3 km/h 14.8 km/h 57 % 0 mm
21:21 13.6 °C 5.2 °C 1013.4 hPa South 10.9 km/h 18.5 km/h 57 % 0 mm
21:26 13.6 °C 4.9 °C 1013.4 hPa South 12.4 km/h 18.5 km/h 56 % 0 mm
21:31 13.5 °C 5.2 °C 1013.4 hPa South 11.4 km/h 17.7 km/h 57 % 0 mm
21:36 13.4 °C 5.1 °C 1013.8 hPa South 12.9 km/h 16.7 km/h 57 % 0 mm
21:41 13.3 °C 5.5 °C 1013.8 hPa SSW 17.1 km/h 22.5 km/h 59 % 0 mm
21:46 13.3 °C 5.7 °C 1013.8 hPa South 17.5 km/h 27.8 km/h 60 % 0 mm
21:51 13.2 °C 6.1 °C 1013.8 hPa South 12.9 km/h 22.2 km/h 62 % 0 mm
21:56 13.2 °C 6.3 °C 1013.8 hPa South 13.7 km/h 18.5 km/h 63 % 0 mm
22:01 13.1 °C 6.4 °C 1014.1 hPa SSE 13.2 km/h 25.9 km/h 64 % 0 mm
22:06 13.1 °C 6.6 °C 1014.1 hPa SSE 10.8 km/h 18.5 km/h 65 % 0 mm
22:11 13 °C 6.8 °C 1013.8 hPa South 9.5 km/h 16.7 km/h 66 % 0 mm
22:16 12.9 °C 6.7 °C 1014.1 hPa South 12.4 km/h 18.5 km/h 66 % 0 mm
22:21 12.9 °C 6.9 °C 1014.1 hPa South 16.3 km/h 16.3 km/h 67 % 0 mm
Ararat Weather
Compliments of Weather Underground - 2.25 mb
Click here to send mail.


ABOUT

Live weather data from Ararat, Victoria, Australia, 3377
Data uploaded from Cumulus every 5 minutes to Weather Underground.
This site then downloads the raw data for formatting and display.
Metric and imperial data can be displayed. Graphs and historical data available.
Includes Sun and Moon times and rain image live from BOM.

Check out Ararat Weather on Facebook, Twitter and Google +

Help support ongoing costs by checking out the ads





Follow @AraratWeather